C/2017 F2 ( PanSTARRS )

Japanese version
Home page
Updated on June 25, 2018

---------------------------------------------------------------------

* Profile

Discovery Date March 31, 2017
Magnitude 21.2 mag
Discoverer Pan-STARRS 1 telescope (Haleakala)

* Pictures

* Orbital Elements

Epoch 2017 Nov. 23.0 TT = JDT 2458080.5
T 2017 Nov. 26.39217 TT                                 MPCW
q   6.9276389            (2000.0)            P               Q
z  -0.0007710      Peri.  134.91796     -0.87746152     -0.22766489
 +/-0.0000045      Node    38.66762     -0.22114079     -0.58902292
e   1.0053411      Incl.   42.50786     +0.42562664     -0.77538422
From 49 observations 2017 Mar. 31-2018 May 22, mean residual 0".5.

* Magnitudes Graph

        m1 = 7.5 + 5 log d + 10.0 log r

---------------------------------------------------------------------

The orbital elements are published on M.P.E.C. 2018-K95.
The magnitudes graphs are made with Comet for Windows.

---------------------------------------------------------------------

Copyright(C) Seiichi Yoshida (comet@aerith.net). All rights reserved.